Regional Weather Roundup
Issued by NWS

Home | Current Version | Previous Version | Text Only | Print | Product List | Glossary Off
Versions: 1 2 3 4 5 6 7 8 9 10 11 12 13 14 15 16 17 18 19 20 21 22 23 24 25 26 27 28 29 30 31 32 33 34 35 36 37 38 39 40 41 42 43 44 45 46 47 48 49 50

000
ASUS43 KLMK 290310
RWRKY
KENTUCKY REGIONAL WEATHER ROUNDUP
NATIONAL WEATHER SERVICE LOUISVILLE KY
1100 PM EDT SUN MAY 28 2017

NOTE "FAIR" INDICATES FEW OR NO CLOUDS BELOW 12,000 FEET
WITH NO SIGNIFICANT WEATHER AND/OR OBSTRUCTIONS TO VISIBILITY.

KYZ001>023-026-027-061>063-070>075-290400-
WESTERN AND SOUTH CENTRAL KENTUCKY

CITY           SKY/WX    TMP DP  RH WIND       PRES   REMARKS
PADUCAH        CLEAR     68  65  90 SW5       29.90S
HENDERSON      CLEAR     68  66  93 SW7       29.89R
OWENSBORO      CLEAR     68  65  90 SW8       29.89R
HOPKINSVILLE   CLEAR     67  65  93 SW5       29.92R
BOWLING GREEN  CLEAR     69  64  84 W5        29.91R
GLASGOW        CLEAR     66  62  86 CALM      29.91R
$$

KYZ024-025-028>034-038-045-046-053-290400-
NORTH CENTRAL KENTUCKY

CITY           SKY/WX    TMP DP  RH WIND       PRES   REMARKS
LOUISVILLE/SDF MOCLDY    71  65  81 SW9       29.87R
LOUISVILLE/LOU MOCLDY    72  66  81 SW8       29.87R
FORT KNOX      MOCLDY    67  64  87 SW8       29.87R
$$

KYZ035>037-039>044-047>052-055>060-089>105-290400-
NORTHEAST KENTUCKY

CITY           SKY/WX    TMP DP  RH WIND       PRES   REMARKS
LEXINGTON      CLOUDY    68  62  81 SW9       29.88R
COVINGTON      TSTM      65  62  90 W9        29.85R
FRANKFORT      PTCLDY    67  61  81 SW6       29.86R
$$

KYZ054-064>069-076>088-106>120-290400-
SOUTHEAST KENTUCKY

CITY           SKY/WX    TMP DP  RH WIND       PRES   REMARKS
JACKSON        CLOUDY    68  61  78 VRB3      29.89R
LONDON         CLOUDY    69  61  75 W6        29.91R
SOMERSET       CLOUDY    68  61  77 W5        29.92S
MIDDLESBORO    MOCLDY    64  63  99 CALM      29.93R
MONTICELLO     CLOUDY    70  63  78 W13       29.94R
$$




USA.gov is the U.S. government's official web portal to all federal, state and local government web resources and services.